QPF
0.00 0.00 0.00 0.00 0.00 0.00 0.00 0.00 0.00 0.00 0.01 0.00 0.01 0.01 0.01 0.01 0.02 0.03 0.01 0.00 0.00 0.00 0.01 0.01 0.02 0.01 0.01 0.01 0.01 0.01 0.01 0.01 0.00 0.00 0.01 0.01 0.00 0.00 0.01 0.01 0.01 0.01 0.01 0.01 0.01 0.01 0.01 0.01 0.01
0.00 0.00 0.00 0.00 0.00 0.00 0.00 0.00 0.00 0.00 0.01 0.00 0.00 0.00 0.00 0.01 0.01 0.01 0.01 0.02 0.01 0.00 0.01 0.01 0.02 0.02 0.02 0.01 0.01 0.01 0.01 0.01 0.01 0.00 0.00 0.00 0.00 0.00 0.01 0.01 0.01 0.01 0.01 0.01 0.00 0.01 0.01 0.01 0.01
0.00 0.00 0.00 0.00 0.00 0.00 0.00 0.00 0.00 0.00 0.00 0.00 0.00 0.00 0.01 0.01 0.01 0.01 0.03 0.04 0.02 0.01 0.01 0.01 0.02 0.01 0.02 0.02 0.01 0.01 0.01 0.01 0.01 0.00 0.00 0.00 0.00 0.01 0.01 0.01 0.01 0.01 0.01 0.00 0.00 0.00 0.00 0.00 0.01
0.00 0.00 0.00 0.00 0.00 0.00 0.00 0.00 0.00 0.00 0.00 0.00 0.00 0.01 0.00 0.00 0.01 0.02 0.04 0.07 0.03 0.02 0.01 0.02 0.02 0.02 0.02 0.02 0.02 0.01 0.01 0.01 0.01 0.01 0.00 0.00 0.00 0.00 0.01 0.01 0.01 0.01 0.01 0.00 0.00 0.00 0.00 0.00 0.00
0.00 0.00 0.00 0.00 0.00 0.00 0.00 0.00 0.00 0.00 0.00 0.00 0.00 0.01 0.01 0.01 0.01 0.02 0.04 0.07 0.06 0.04 0.03 0.03 0.03 0.03 0.04 0.03 0.02 0.01 0.01 0.01 0.01 0.00 0.00 0.01 0.01 0.01 0.00 0.01 0.01 0.01 0.01 0.01 0.00 0.00 0.00 0.00 0.00
0.00 0.00 0.00 0.00 0.00 0.00 0.00 0.00 0.00 0.00 0.00 0.00 0.00 0.01 0.01 0.01 0.02 0.02 0.03 0.07 0.09 0.06 0.06 0.07 0.05 0.04 0.03 0.03 0.03 0.03 0.02 0.02 0.01 0.01 0.01 0.01 0.01 0.01 0.01 0.01 0.01 0.01 0.01 0.01 0.01 0.01 0.00 0.00 0.01
0.00 0.00 0.00 0.00 0.00 0.00 0.00 0.00 0.00 0.00 0.00 0.00 0.00 0.01 0.02 0.02 0.02 0.03 0.10 0.11 0.11 0.08 0.08 0.08 0.07 0.05 0.04 0.04 0.04 0.03 0.03 0.03 0.02 0.02 0.02 0.02 0.02 0.02 0.02 0.02 0.02 0.01 0.01 0.01 0.01 0.01 0.00 0.00 0.01
0.00 0.00 0.00 0.00 0.00 0.00 0.00 0.00 0.00 0.00 0.00 0.00 0.01 0.02 0.03 0.04 0.05 0.05 0.09 0.08 0.11 0.09 0.08 0.08 0.07 0.07 0.05 0.05 0.06 0.06 0.05 0.04 0.03 0.02 0.03 0.03 0.03 0.03 0.03 0.02 0.02 0.02 0.01 0.01 0.01 0.01 0.01 0.01 0.01
0.00 0.00 0.00 0.00 0.00 0.00 0.00 0.00 0.00 0.00 0.00 0.00 0.00 0.01 0.02 0.05 0.08 0.06 0.07 0.06 0.08 0.09 0.08 0.09 0.10 0.09 0.07 0.06 0.06 0.08 0.08 0.07 0.06 0.05 0.05 0.06 0.07 0.05 0.04 0.03 0.02 0.02 0.02 0.02 0.02 0.01 0.01 0.01 0.00
0.00 0.00 0.00 0.00 0.00 0.00 0.00 0.00 0.00 0.00 0.00 0.00 0.01 0.01 0.04 0.05 0.07 0.04 0.05 0.05 0.05 0.05 0.05 0.06 0.05 0.04 0.05 0.06 0.09 0.10 0.10 0.11 0.11 0.11 0.10 0.10 0.11 0.08 0.06 0.05 0.05 0.05 0.05 0.04 0.04 0.03 0.02 0.01 0.01
0.00 0.00 0.00 0.00 0.00 0.00 0.00 0.00 0.00 0.01 0.01 0.01 0.01 0.02 0.07 0.08 0.07 0.05 0.04 0.05 0.04 0.04 0.05 0.05 0.05 0.05 0.07 0.09 0.09 0.09 0.11 0.12 0.13 0.13 0.13 0.12 0.10 0.10 0.09 0.09 0.09 0.10 0.08 0.09 0.09 0.07 0.06 0.05 0.04
0.00 0.00 0.00 0.00 0.00 0.00 0.00 0.00 0.01 0.01 0.01 0.01 0.02 0.02 0.07 0.06 0.06 0.05 0.05 0.07 0.05 0.04 0.05 0.06 0.07 0.10 0.12 0.11 0.11 0.11 0.12 0.12 0.12 0.13 0.13 0.13 0.12 0.11 0.12 0.11 0.11 0.11 0.12 0.13 0.13 0.11 0.10 0.09 0.06
0.00 0.00 0.00 0.00 0.00 0.00 0.00 0.00 0.01 0.01 0.01 0.01 0.02 0.02 0.03 0.07 0.08 0.10 0.11 0.10 0.09 0.07 0.08 0.10 0.11 0.12 0.15 0.15 0.13 0.12 0.13 0.11 0.12 0.14 0.14 0.13 0.13 0.11 0.10 0.10 0.10 0.11 0.10 0.11 0.12 0.10 0.10 0.10 0.07
0.00 0.00 0.00 0.00 0.00 0.00 0.00 0.00 0.01 0.01 0.02 0.03 0.04 0.07 0.06 0.08 0.13 0.15 0.14 0.12 0.10 0.08 0.08 0.10 0.10 0.11 0.13 0.16 0.15 0.12 0.11 0.11 0.10 0.10 0.09 0.09 0.11 0.09 0.09 0.09 0.10 0.10 0.10 0.10 0.10 0.10 0.09 0.08 0.06
0.00 0.00 0.00 0.00 0.00 0.00 0.01 0.01 0.01 0.01 0.01 0.04 0.06 0.09 0.11 0.11 0.13 0.14 0.13 0.10 0.08 0.08 0.09 0.11 0.12 0.10 0.10 0.10 0.14 0.11 0.09 0.08 0.07 0.07 0.08 0.08 0.07 0.07 0.06 0.07 0.08 0.08 0.09 0.11 0.11 0.10 0.08 0.06 0.05
0.00 0.00 0.00 0.00 0.00 0.00 0.01 0.02 0.01 0.00 0.02 0.04 0.06 0.08 0.11 0.12 0.14 0.15 0.16 0.15 0.13 0.11 0.10 0.10 0.12 0.12 0.08 0.09 0.11 0.10 0.08 0.07 0.06 0.06 0.06 0.06 0.05 0.05 0.05 0.05 0.05 0.07 0.08 0.10 0.11 0.10 0.08 0.06 0.05
0.00 0.00 0.00 0.00 0.00 0.00 0.00 0.02 0.00 0.00 0.01 0.04 0.06 0.09 0.11 0.12 0.14 0.17 0.19 0.20 0.19 0.17 0.13 0.12 0.11 0.11 0.08 0.09 0.10 0.09 0.09 0.07 0.06 0.05 0.05 0.04 0.04 0.04 0.04 0.05 0.05 0.05 0.05 0.06 0.05 0.05 0.05 0.05 0.05
0.00 0.00 0.00 0.00 0.00 0.00 0.00 0.01 0.00 0.00 0.01 0.03 0.04 0.06 0.09 0.11 0.13 0.18 0.21 0.22 0.18 0.16 0.13 0.12 0.13 0.11 0.09 0.07 0.06 0.07 0.06 0.06 0.04 0.04 0.04 0.03 0.03 0.02 0.03 0.04 0.04 0.04 0.03 0.03 0.03 0.04 0.04 0.04 0.04
0.00 0.00 0.00 0.00 0.00 0.00 0.00 0.01 0.01 0.00 0.01 0.02 0.03 0.04 0.05 0.08 0.13 0.19 0.19 0.18 0.15 0.16 0.15 0.12 0.12 0.11 0.09 0.07 0.07 0.06 0.06 0.05 0.03 0.03 0.03 0.03 0.03 0.02 0.02 0.02 0.03 0.04 0.03 0.03 0.02 0.02 0.03 0.04 0.03
0.00 0.00 0.00 0.00 0.00 0.00 0.00 0.00 0.00 0.00 0.01 0.01 0.02 0.03 0.04 0.06 0.10 0.14 0.14 0.16 0.14 0.13 0.14 0.12 0.11 0.09 0.08 0.07 0.07 0.05 0.05 0.04 0.03 0.02 0.02 0.02 0.02 0.02 0.01 0.02 0.02 0.02 0.03 0.03 0.02 0.02 0.02 0.01 0.02
0.00 0.00 0.00 0.00 0.00 0.00 0.00 0.00 0.00 0.00 0.00 0.00 0.01 0.02 0.04 0.06 0.07 0.07 0.08 0.13 0.11 0.09 0.10 0.11 0.10 0.09 0.07 0.06 0.04 0.03 0.03 0.02 0.01 0.01 0.01 0.01 0.01 0.01 0.01 0.01 0.01 0.01 0.01 0.02 0.02 0.02 0.01 0.01 0.01
0.00 0.00 0.00 0.00 0.00 0.00 0.01 0.01 0.00 0.00 0.01 0.01 0.02 0.01 0.02 0.04 0.04 0.05 0.04 0.06 0.07 0.08 0.09 0.09 0.08 0.07 0.05 0.03 0.03 0.03 0.02 0.01 0.01 0.00 0.00 0.00 0.00 0.00 0.00 0.00 0.00 0.00 0.00 0.01 0.00 0.00 0.01 0.01 0.00
0.00 0.00 0.00 0.00 0.00 0.00 0.00 0.00 0.00 0.00 0.00 0.00 0.01 0.01 0.01 0.03 0.03 0.03 0.03 0.04 0.05 0.06 0.06 0.05 0.05 0.04 0.04 0.02 0.03 0.02 0.01 0.01 0.00 0.00 0.00 0.00 0.00 0.00 0.00 0.00 0.00 0.01 0.00 0.01 0.00 0.00 0.00 0.00 0.01
0.00 0.00 0.00 0.00 0.00 0.01 0.00 0.00 0.00 0.00 0.00 0.00 0.00 0.00 0.01 0.01 0.01 0.01 0.02 0.02 0.03 0.05 0.05 0.04 0.03 0.03 0.02 0.01 0.02 0.02 0.02 0.01 0.00 0.00 0.00 0.00 0.00 0.00 0.00 0.00 0.00 0.01 0.00 0.00 0.00 0.00 0.00 0.00 0.00
0.00 0.00 0.01 0.01 0.01 0.01 0.00 0.00 0.00 0.00 0.00 0.00 0.00 0.00 0.00 0.01 0.01 0.01 0.01 0.01 0.02 0.03 0.03 0.02 0.02 0.02 0.01 0.01 0.02 0.01 0.02 0.01 0.01 0.00 0.00 0.00 0.00 0.00 0.00 0.00 0.00 0.00 0.00 0.00 0.00 0.00 0.00 0.00 0.00
0.00 0.00 0.01 0.01 0.01 0.00 0.00 0.00 0.00 0.00 0.00 0.00 0.00 0.00 0.00 0.01 0.00 0.00 0.00 0.01 0.02 0.03 0.02 0.02 0.02 0.02 0.01 0.02 0.02 0.01 0.01 0.01 0.00 0.00 0.00 0.00 0.00 0.00 0.00 0.00 0.00 0.00 0.00 0.00 0.00 0.00 0.00 0.00 0.00
0.00 0.00 0.00 0.00 0.00 0.00 0.00 0.00 0.00 0.00 0.00 0.00 0.00 0.00 0.00 0.00 0.00 0.00 0.00 0.01 0.01 0.01 0.01 0.01 0.02 0.02 0.02 0.02 0.01 0.01 0.00 0.00 0.00 0.00 0.00 0.00 0.00 0.00 0.00 0.00 0.00 0.00 0.00 0.00 0.00 0.00 0.00 0.00 0.00
0.00 0.00 0.00 0.01 0.02 0.01 0.00 0.00 0.00 0.00 0.00 0.00 0.00 0.00 0.00 0.00 0.00 0.00 0.00 0.00 0.00 0.00 0.01 0.01 0.02 0.02 0.01 0.01 0.01 0.00 0.00 0.00 0.00 0.00 0.00 0.00 0.00 0.00 0.00 0.00 0.00 0.00 0.00 0.00 0.00 0.00 0.00 0.00 0.00
0.00 0.00 0.00 0.00 0.00 0.01 0.00 0.00 0.00 0.00 0.00 0.00 0.00 0.00 0.00 0.00 0.00 0.00 0.00 0.00 0.00 0.00 0.00 0.01 0.02 0.02 0.01 0.01 0.01 0.00 0.00 0.00 0.00 0.00 0.00 0.00 0.00 0.00 0.00 0.00 0.00 0.00 0.00 0.00 0.00 0.00 0.00 0.00 0.00
0.00 0.00 0.00 0.01 0.01 0.00 0.00 0.00 0.00 0.00 0.00 0.00 0.00 0.00 0.00 0.00 0.00 0.00 0.00 0.00 0.00 0.00 0.00 0.01 0.01 0.01 0.01 0.01 0.00 0.00 0.00 0.00 0.00 0.00 0.00 0.00 0.00 0.00 0.00 0.00 0.00 0.00 0.00 0.00 0.00 0.00 0.00 0.00 0.00
MSLP
1011.14 1011.41 1011.74 1012.06 1012.34 1012.55 1012.69 1012.77 1012.81 1012.85 1012.89 1012.93 1012.95 1012.93 1012.84 1012.67 1012.43 1012.16 1011.92 1011.78 1011.80 1012.01 1012.42 1012.97 1013.61 1014.24 1014.80 1015.22 1015.48 1015.63 1015.69 1015.74 1015.83 1016.01 1016.27 1016.58 1016.89 1017.16 1017.33 1017.40 1017.39 1017.32 1017.25 1017.22 1017.26 1017.36 1017.50 1017.62 1017.69
1011.29 1011.64 1012.02 1012.34 1012.57 1012.69 1012.70 1012.63 1012.51 1012.41 1012.33 1012.29 1012.28 1012.25 1012.19 1012.07 1011.89 1011.69 1011.52 1011.45 1011.55 1011.83 1012.31 1012.94 1013.66 1014.36 1014.98 1015.46 1015.77 1015.95 1016.04 1016.10 1016.20 1016.36 1016.59 1016.87 1017.14 1017.36 1017.50 1017.53 1017.49 1017.42 1017.36 1017.37 1017.44 1017.58 1017.75 1017.90 1017.97
1011.55 1011.96 1012.34 1012.62 1012.77 1012.76 1012.62 1012.38 1012.12 1011.88 1011.71 1011.62 1011.59 1011.59 1011.58 1011.52 1011.41 1011.29 1011.19 1011.19 1011.34 1011.69 1012.23 1012.92 1013.70 1014.46 1015.14 1015.68 1016.05 1016.27 1016.40 1016.48 1016.58 1016.74 1016.95 1017.18 1017.41 1017.58 1017.67 1017.68 1017.62 1017.56 1017.52 1017.55 1017.67 1017.84 1018.03 1018.18 1018.24
1011.91 1012.33 1012.68 1012.89 1012.91 1012.76 1012.46 1012.08 1011.68 1011.35 1011.12 1011.00 1010.99 1011.03 1011.08 1011.09 1011.07 1011.01 1010.98 1011.03 1011.23 1011.62 1012.19 1012.92 1013.74 1014.55 1015.28 1015.86 1016.28 1016.55 1016.71 1016.81 1016.93 1017.07 1017.26 1017.47 1017.66 1017.79 1017.86 1017.85 1017.80 1017.75 1017.74 1017.81 1017.95 1018.15 1018.34 1018.48 1018.52
1012.32 1012.71 1012.99 1013.09 1012.98 1012.68 1012.24 1011.73 1011.25 1010.85 1010.60 1010.50 1010.53 1010.64 1010.76 1010.85 1010.90 1010.91 1010.93 1011.02 1011.25 1011.65 1012.23 1012.97 1013.79 1014.62 1015.37 1015.97 1016.42 1016.72 1016.91 1017.04 1017.16 1017.30 1017.48 1017.67 1017.84 1017.96 1018.02 1018.02 1018.00 1017.98 1018.01 1018.12 1018.29 1018.49 1018.67 1018.79 1018.79
1012.71 1013.04 1013.21 1013.18 1012.94 1012.51 1011.96 1011.38 1010.85 1010.45 1010.22 1010.18 1010.27 1010.45 1010.65 1010.82 1010.93 1010.99 1011.05 1011.17 1011.40 1011.80 1012.37 1013.08 1013.88 1014.68 1015.41 1016.01 1016.46 1016.77 1016.96 1017.10 1017.24 1017.39 1017.56 1017.75 1017.92 1018.06 1018.14 1018.18 1018.19 1018.23 1018.31 1018.44 1018.63 1018.84 1019.00 1019.08 1019.04
1013.02 1013.25 1013.30 1013.13 1012.77 1012.25 1011.64 1011.03 1010.51 1010.15 1009.99 1010.02 1010.20 1010.46 1010.73 1010.97 1011.13 1011.23 1011.32 1011.44 1011.67 1012.04 1012.57 1013.24 1013.98 1014.73 1015.40 1015.97 1016.39 1016.68 1016.87 1017.02 1017.15 1017.31 1017.50 1017.71 1017.90 1018.06 1018.19 1018.28 1018.35 1018.44 1018.57 1018.74 1018.94 1019.14 1019.28 1019.33 1019.25
1013.18 1013.29 1013.20 1012.92 1012.47 1011.89 1011.27 1010.69 1010.23 1009.96 1009.89 1010.01 1010.27 1010.60 1010.94 1011.23 1011.43 1011.56 1011.67 1011.80 1012.02 1012.36 1012.84 1013.43 1014.09 1014.76 1015.36 1015.86 1016.23 1016.49 1016.67 1016.81 1016.96 1017.13 1017.34 1017.56 1017.79 1017.99 1018.16 1018.31 1018.44 1018.59 1018.76 1018.96 1019.17 1019.36 1019.48 1019.49 1019.37
1013.16 1013.14 1012.93 1012.56 1012.05 1011.47 1010.89 1010.38 1010.02 1009.86 1009.89 1010.09 1010.43 1010.81 1011.19 1011.51 1011.74 1011.90 1012.02 1012.16 1012.37 1012.68 1013.11 1013.63 1014.21 1014.78 1015.30 1015.72 1016.03 1016.25 1016.41 1016.55 1016.70 1016.89 1017.12 1017.37 1017.63 1017.87 1018.09 1018.28 1018.46 1018.65 1018.85 1019.08 1019.30 1019.48 1019.58 1019.56 1019.42
1012.96 1012.82 1012.51 1012.08 1011.56 1011.02 1010.52 1010.13 1009.88 1009.83 1009.95 1010.23 1010.61 1011.02 1011.41 1011.74 1011.99 1012.17 1012.31 1012.47 1012.68 1012.97 1013.36 1013.82 1014.32 1014.80 1015.23 1015.57 1015.82 1016.01 1016.15 1016.29 1016.46 1016.67 1016.92 1017.20 1017.48 1017.75 1017.99 1018.21 1018.42 1018.63 1018.86 1019.10 1019.32 1019.49 1019.58 1019.56 1019.41
1012.61 1012.37 1012.01 1011.56 1011.07 1010.61 1010.22 1009.95 1009.83 1009.88 1010.07 1010.39 1010.77 1011.18 1011.56 1011.88 1012.13 1012.32 1012.49 1012.68 1012.91 1013.20 1013.57 1013.98 1014.41 1014.82 1015.17 1015.45 1015.65 1015.81 1015.95 1016.10 1016.29 1016.53 1016.80 1017.10 1017.39 1017.67 1017.92 1018.14 1018.35 1018.57 1018.80 1019.04 1019.27 1019.44 1019.53 1019.51 1019.37
1012.19 1011.88 1011.49 1011.06 1010.65 1010.30 1010.04 1009.90 1009.89 1010.01 1010.25 1010.56 1010.92 1011.28 1011.61 1011.91 1012.15 1012.36 1012.56 1012.78 1013.05 1013.36 1013.72 1014.11 1014.49 1014.84 1015.13 1015.37 1015.54 1015.69 1015.84 1016.01 1016.23 1016.49 1016.79 1017.09 1017.39 1017.66 1017.89 1018.10 1018.29 1018.50 1018.72 1018.95 1019.18 1019.36 1019.46 1019.46 1019.35
1011.76 1011.42 1011.04 1010.67 1010.36 1010.13 1010.01 1009.99 1010.07 1010.24 1010.48 1010.76 1011.06 1011.35 1011.62 1011.87 1012.09 1012.31 1012.55 1012.82 1013.12 1013.47 1013.83 1014.21 1014.56 1014.88 1015.13 1015.34 1015.50 1015.65 1015.82 1016.03 1016.27 1016.56 1016.87 1017.18 1017.47 1017.71 1017.92 1018.09 1018.26 1018.44 1018.65 1018.87 1019.10 1019.30 1019.42 1019.45 1019.37
1011.40 1011.06 1010.72 1010.43 1010.24 1010.14 1010.14 1010.23 1010.38 1010.58 1010.79 1011.01 1011.23 1011.43 1011.62 1011.82 1012.02 1012.25 1012.52 1012.82 1013.17 1013.55 1013.93 1014.30 1014.64 1014.93 1015.16 1015.35 1015.52 1015.69 1015.88 1016.12 1016.40 1016.71 1017.03 1017.34 1017.61 1017.82 1017.99 1018.13 1018.26 1018.42 1018.60 1018.82 1019.06 1019.28 1019.43 1019.50 1019.47
1011.15 1010.82 1010.54 1010.35 1010.27 1010.30 1010.42 1010.60 1010.80 1011.00 1011.18 1011.33 1011.45 1011.57 1011.68 1011.82 1012.00 1012.24 1012.52 1012.86 1013.24 1013.64 1014.03 1014.40 1014.72 1014.99 1015.21 1015.40 1015.58 1015.76 1015.99 1016.25 1016.56 1016.89 1017.21 1017.51 1017.76 1017.95 1018.09 1018.19 1018.30 1018.43 1018.60 1018.82 1019.07 1019.31 1019.50 1019.61 1019.62
1011.00 1010.70 1010.49 1010.39 1010.43 1010.57 1010.78 1011.03 1011.26 1011.46 1011.60 1011.68 1011.73 1011.77 1011.83 1011.92 1012.08 1012.31 1012.61 1012.97 1013.36 1013.77 1014.16 1014.51 1014.82 1015.07 1015.28 1015.47 1015.65 1015.86 1016.10 1016.38 1016.70 1017.04 1017.37 1017.65 1017.88 1018.05 1018.17 1018.25 1018.34 1018.47 1018.64 1018.86 1019.12 1019.38 1019.60 1019.76 1019.81
1010.94 1010.67 1010.52 1010.51 1010.63 1010.87 1011.16 1011.46 1011.71 1011.90 1012.01 1012.05 1012.05 1012.03 1012.05 1012.12 1012.26 1012.49 1012.79 1013.15 1013.54 1013.93 1014.30 1014.64 1014.92 1015.16 1015.36 1015.54 1015.73 1015.95 1016.20 1016.49 1016.82 1017.15 1017.46 1017.73 1017.95 1018.11 1018.22 1018.30 1018.39 1018.52 1018.69 1018.92 1019.19 1019.47 1019.72 1019.91 1019.99
1010.91 1010.67 1010.57 1010.63 1010.83 1011.13 1011.48 1011.80 1012.08 1012.26 1012.34 1012.36 1012.33 1012.30 1012.30 1012.36 1012.50 1012.73 1013.02 1013.37 1013.74 1014.10 1014.45 1014.75 1015.01 1015.23 1015.43 1015.61 1015.81 1016.03 1016.29 1016.58 1016.89 1017.20 1017.50 1017.75 1017.96 1018.11 1018.23 1018.32 1018.43 1018.57 1018.76 1019.01 1019.28 1019.57 1019.84 1020.04 1020.14
1010.86 1010.66 1010.61 1010.72 1010.97 1011.31 1011.68 1012.02 1012.29 1012.47 1012.55 1012.56 1012.53 1012.50 1012.52 1012.59 1012.74 1012.97 1013.25 1013.58 1013.91 1014.25 1014.56 1014.83 1015.07 1015.29 1015.48 1015.68 1015.89 1016.11 1016.37 1016.65 1016.94 1017.23 1017.50 1017.73 1017.93 1018.08 1018.21 1018.33 1018.46 1018.63 1018.84 1019.10 1019.38 1019.67 1019.93 1020.13 1020.25
1010.76 1010.60 1010.60 1010.76 1011.04 1011.39 1011.76 1012.09 1012.35 1012.51 1012.58 1012.60 1012.59 1012.59 1012.63 1012.73 1012.90 1013.13 1013.41 1013.71 1014.02 1014.32 1014.60 1014.85 1015.09 1015.31 1015.52 1015.74 1015.97 1016.20 1016.46 1016.72 1016.99 1017.24 1017.48 1017.69 1017.88 1018.04 1018.19 1018.34 1018.50 1018.70 1018.93 1019.19 1019.48 1019.76 1020.01 1020.20 1020.32
1010.61 1010.51 1010.56 1010.75 1011.05 1011.39 1011.74 1012.04 1012.25 1012.39 1012.45 1012.46 1012.47 1012.51 1012.59 1012.73 1012.92 1013.17 1013.44 1013.73 1014.01 1014.29 1014.55 1014.80 1015.04 1015.29 1015.53 1015.79 1016.05 1016.31 1016.57 1016.82 1017.06 1017.28 1017.49 1017.67 1017.85 1018.01 1018.18 1018.36 1018.56 1018.78 1019.03 1019.30 1019.58 1019.84 1020.07 1020.25 1020.37
1010.42 1010.39 1010.51 1010.73 1011.04 1011.36 1011.66 1011.90 1012.05 1012.14 1012.17 1012.18 1012.20 1012.27 1012.38 1012.56 1012.79 1013.05 1013.33 1013.61 1013.88 1014.14 1014.40 1014.66 1014.93 1015.22 1015.51 1015.82 1016.12 1016.41 1016.69 1016.93 1017.15 1017.35 1017.52 1017.69 1017.85 1018.02 1018.20 1018.41 1018.63 1018.88 1019.15 1019.41 1019.68 1019.92 1020.12 1020.29 1020.39
1010.23 1010.30 1010.48 1010.75 1011.05 1011.34 1011.57 1011.73 1011.81 1011.83 1011.81 1011.80 1011.82 1011.90 1012.05 1012.26 1012.52 1012.80 1013.09 1013.37 1013.65 1013.91 1014.18 1014.46 1014.77 1015.11 1015.46 1015.82 1016.18 1016.51 1016.80 1017.05 1017.26 1017.43 1017.58 1017.73 1017.88 1018.05 1018.25 1018.47 1018.72 1018.99 1019.26 1019.52 1019.77 1019.98 1020.17 1020.31 1020.41
1010.06 1010.24 1010.51 1010.81 1011.11 1011.35 1011.51 1011.58 1011.57 1011.50 1011.42 1011.37 1011.38 1011.47 1011.64 1011.88 1012.16 1012.47 1012.77 1013.07 1013.35 1013.62 1013.91 1014.22 1014.57 1014.95 1015.36 1015.78 1016.19 1016.56 1016.88 1017.14 1017.35 1017.51 1017.65 1017.78 1017.93 1018.10 1018.30 1018.54 1018.81 1019.08 1019.35 1019.60 1019.83 1020.03 1020.19 1020.31 1020.40
1009.93 1010.22 1010.57 1010.90 1011.19 1011.39 1011.47 1011.45 1011.34 1011.19 1011.04 1010.94 1010.93 1011.02 1011.20 1011.46 1011.77 1012.10 1012.43 1012.74 1013.03 1013.32 1013.63 1013.97 1014.35 1014.77 1015.23 1015.69 1016.14 1016.55 1016.90 1017.18 1017.39 1017.55 1017.69 1017.82 1017.96 1018.14 1018.35 1018.60 1018.87 1019.15 1019.41 1019.65 1019.86 1020.03 1020.17 1020.27 1020.35
1009.83 1010.22 1010.62 1010.98 1011.25 1011.40 1011.41 1011.30 1011.10 1010.87 1010.66 1010.52 1010.49 1010.58 1010.77 1011.06 1011.40 1011.75 1012.10 1012.43 1012.74 1013.04 1013.36 1013.72 1014.12 1014.57 1015.05 1015.55 1016.02 1016.46 1016.83 1017.13 1017.37 1017.54 1017.69 1017.83 1017.98 1018.17 1018.39 1018.64 1018.91 1019.18 1019.43 1019.65 1019.84 1019.99 1020.10 1020.18 1020.24
1009.74 1010.19 1010.62 1010.98 1011.23 1011.32 1011.26 1011.08 1010.81 1010.52 1010.26 1010.10 1010.06 1010.15 1010.36 1010.67 1011.04 1011.42 1011.80 1012.15 1012.48 1012.79 1013.12 1013.49 1013.89 1014.35 1014.84 1015.34 1015.84 1016.29 1016.69 1017.01 1017.26 1017.47 1017.63 1017.80 1017.97 1018.16 1018.39 1018.64 1018.91 1019.16 1019.40 1019.60 1019.76 1019.88 1019.96 1020.02 1020.06
1009.61 1010.07 1010.50 1010.84 1011.04 1011.07 1010.96 1010.71 1010.40 1010.07 1009.80 1009.64 1009.61 1009.72 1009.96 1010.30 1010.70 1011.11 1011.51 1011.88 1012.23 1012.56 1012.89 1013.25 1013.66 1014.10 1014.59 1015.09 1015.58 1016.05 1016.46 1016.81 1017.09 1017.33 1017.53 1017.72 1017.92 1018.14 1018.37 1018.62 1018.88 1019.12 1019.33 1019.50 1019.63 1019.72 1019.77 1019.80 1019.81
1009.42 1009.85 1010.23 1010.51 1010.63 1010.61 1010.44 1010.16 1009.83 1009.50 1009.24 1009.10 1009.10 1009.25 1009.53 1009.90 1010.33 1010.77 1011.19 1011.59 1011.95 1012.29 1012.63 1012.99 1013.38 1013.82 1014.29 1014.78 1015.27 1015.74 1016.17 1016.54 1016.86 1017.14 1017.39 1017.62 1017.85 1018.09 1018.33 1018.58 1018.82 1019.03 1019.22 1019.35 1019.45 1019.50 1019.52 1019.52 1019.50
1009.16 1009.52 1009.81 1009.99 1010.03 1009.94 1009.73 1009.43 1009.10 1008.80 1008.58 1008.48 1008.53 1008.72 1009.03 1009.44 1009.89 1010.36 1010.80 1011.22 1011.59 1011.95 1012.30 1012.66 1013.05 1013.47 1013.93 1014.42 1014.90 1015.38 1015.83 1016.23 1016.59 1016.91 1017.21 1017.48 1017.74 1018.00 1018.26 1018.50 1018.72 1018.91 1019.06 1019.16 1019.22 1019.24 1019.23 1019.19 1019.15
Thickness
5821 5825 5826 5820 5811 5809 5803 5808 5814 5813 5816 5821 5821 5816 5810 5805 5799 5791 5810 5820 5817 5811 5802 5791 5787 5784 5782 5780 5778 5775 5773 5771 5769 5767 5766 5764 5762 5761 5760 5759 5758 5757 5756 5756 5756 5755 5755 5754 5754
5827 5826 5820 5816 5806 5796 5797 5809 5810 5814 5820 5821 5817 5812 5807 5803 5807 5805 5809 5813 5813 5808 5799 5792 5784 5782 5779 5777 5775 5773 5771 5769 5767 5765 5763 5761 5760 5759 5758 5757 5756 5755 5754 5754 5753 5753 5752 5751 5751
5826 5823 5815 5812 5803 5798 5798 5809 5812 5817 5821 5816 5811 5811 5806 5800 5802 5804 5808 5810 5809 5804 5798 5789 5782 5779 5776 5774 5772 5770 5768 5766 5764 5763 5761 5759 5758 5757 5756 5755 5754 5753 5752 5752 5751 5750 5750 5749 5748
5822 5817 5814 5806 5798 5804 5806 5811 5815 5812 5813 5814 5810 5803 5804 5804 5804 5805 5807 5806 5803 5799 5795 5786 5779 5775 5773 5770 5768 5767 5765 5763 5761 5760 5758 5757 5755 5754 5753 5752 5751 5751 5750 5749 5749 5748 5747 5746 5746
5820 5813 5804 5800 5800 5807 5812 5814 5815 5809 5807 5810 5808 5800 5796 5801 5806 5805 5803 5802 5798 5796 5791 5782 5775 5772 5769 5767 5765 5763 5762 5760 5758 5757 5755 5754 5753 5751 5750 5750 5749 5748 5748 5747 5746 5745 5745 5744 5744
5812 5810 5798 5795 5797 5804 5811 5814 5812 5807 5806 5806 5803 5797 5793 5798 5798 5799 5799 5797 5796 5792 5787 5778 5771 5768 5766 5764 5762 5760 5759 5757 5756 5754 5752 5751 5750 5749 5748 5747 5746 5746 5745 5744 5743 5743 5742 5742 5741
5806 5804 5797 5796 5794 5798 5804 5812 5807 5803 5799 5802 5803 5793 5788 5790 5793 5794 5793 5792 5791 5787 5782 5774 5769 5765 5762 5761 5759 5757 5755 5754 5753 5751 5749 5748 5747 5745 5744 5744 5743 5742 5742 5741 5740 5740 5739 5739 5739
5811 5804 5796 5796 5792 5794 5805 5807 5806 5802 5798 5804 5801 5789 5783 5785 5789 5788 5786 5785 5783 5780 5777 5772 5768 5764 5761 5758 5755 5754 5752 5751 5749 5748 5746 5745 5744 5742 5741 5741 5740 5739 5738 5738 5737 5737 5737 5737 5736
5807 5795 5792 5795 5794 5797 5804 5800 5803 5806 5799 5794 5794 5791 5790 5786 5784 5779 5776 5775 5773 5772 5771 5770 5766 5762 5760 5758 5755 5752 5749 5747 5746 5745 5743 5742 5744 5744 5741 5740 5737 5736 5735 5735 5734 5734 5734 5734 5734
5800 5792 5795 5801 5803 5801 5801 5798 5798 5795 5789 5785 5783 5783 5783 5779 5776 5772 5769 5767 5766 5765 5765 5766 5764 5761 5760 5758 5753 5752 5751 5747 5746 5745 5742 5741 5740 5740 5740 5735 5733 5733 5732 5731 5731 5731 5731 5733 5737
5800 5793 5799 5802 5805 5803 5798 5796 5797 5789 5781 5781 5778 5775 5774 5771 5769 5767 5766 5765 5763 5762 5762 5761 5760 5759 5758 5755 5752 5751 5749 5746 5744 5742 5739 5738 5737 5737 5736 5734 5732 5731 5731 5731 5730 5730 5732 5733 5735
5796 5797 5799 5800 5803 5799 5795 5793 5788 5783 5779 5782 5781 5777 5770 5766 5764 5763 5761 5760 5759 5757 5757 5757 5756 5754 5753 5752 5750 5748 5747 5744 5743 5739 5737 5736 5735 5734 5733 5731 5731 5730 5730 5729 5728 5728 5729 5729 5729
5794 5796 5799 5800 5800 5797 5793 5788 5783 5777 5779 5779 5776 5771 5765 5763 5760 5759 5758 5756 5754 5752 5752 5752 5751 5750 5748 5746 5746 5745 5744 5743 5741 5737 5735 5734 5733 5732 5730 5729 5728 5729 5728 5727 5726 5726 5725 5725 5726
5800 5798 5797 5798 5796 5793 5786 5783 5779 5773 5775 5771 5767 5762 5760 5757 5755 5753 5751 5750 5750 5750 5748 5748 5747 5745 5744 5743 5742 5741 5740 5737 5737 5736 5734 5731 5730 5729 5728 5727 5726 5726 5725 5724 5723 5723 5722 5722 5723
5800 5791 5793 5795 5793 5790 5784 5773 5772 5772 5770 5764 5760 5757 5754 5751 5749 5747 5747 5746 5747 5746 5746 5743 5742 5741 5740 5740 5739 5738 5737 5735 5734 5732 5730 5728 5727 5726 5726 5726 5725 5724 5723 5721 5720 5720 5719 5720 5721
5794 5787 5783 5791 5790 5786 5775 5764 5769 5771 5765 5757 5754 5751 5748 5745 5744 5744 5744 5743 5743 5742 5741 5741 5741 5738 5737 5736 5735 5735 5734 5732 5731 5729 5728 5726 5724 5724 5723 5724 5723 5720 5720 5720 5718 5718 5717 5717 5717
5786 5782 5782 5784 5787 5782 5773 5765 5766 5768 5761 5753 5750 5746 5743 5740 5740 5739 5739 5739 5739 5738 5736 5736 5736 5735 5734 5732 5732 5731 5729 5728 5728 5727 5726 5724 5722 5721 5721 5721 5719 5718 5718 5718 5718 5716 5715 5714 5714
5781 5782 5780 5778 5783 5776 5769 5767 5765 5764 5759 5752 5747 5744 5740 5737 5736 5737 5736 5736 5736 5735 5734 5732 5732 5731 5731 5730 5728 5727 5726 5725 5725 5725 5723 5721 5720 5719 5719 5718 5715 5716 5716 5714 5713 5711 5711 5712 5711
5785 5779 5776 5778 5782 5773 5767 5764 5763 5761 5756 5750 5746 5742 5738 5736 5736 5736 5735 5734 5733 5731 5730 5729 5728 5728 5728 5728 5727 5725 5723 5724 5723 5723 5720 5719 5718 5716 5716 5717 5713 5713 5714 5712 5712 5711 5710 5710 5709
5780 5774 5775 5776 5777 5771 5766 5763 5765 5760 5755 5753 5747 5742 5739 5736 5734 5732 5731 5731 5729 5727 5727 5726 5726 5726 5726 5726 5725 5724 5723 5723 5722 5721 5718 5717 5715 5714 5715 5713 5713 5712 5710 5709 5708 5707 5708 5708 5707
5779 5776 5775 5771 5771 5771 5763 5759 5760 5760 5758 5755 5751 5748 5743 5739 5734 5731 5730 5730 5729 5726 5726 5728 5726 5725 5726 5725 5724 5722 5720 5720 5720 5718 5717 5715 5714 5713 5712 5711 5712 5710 5711 5708 5706 5705 5703 5704 5704
5773 5783 5778 5770 5762 5764 5761 5751 5762 5762 5754 5752 5750 5749 5746 5743 5739 5735 5732 5730 5729 5728 5729 5727 5725 5724 5724 5724 5724 5722 5721 5719 5719 5719 5717 5714 5713 5712 5711 5710 5709 5709 5710 5706 5706 5705 5703 5700 5701
5778 5781 5777 5771 5765 5762 5763 5754 5767 5764 5755 5754 5754 5752 5750 5747 5743 5738 5735 5733 5732 5731 5729 5727 5725 5723 5723 5724 5723 5722 5722 5721 5720 5718 5714 5714 5712 5711 5710 5709 5708 5706 5707 5704 5702 5700 5699 5699 5698
5779 5773 5769 5768 5766 5749 5760 5754 5759 5768 5765 5764 5761 5757 5753 5750 5745 5741 5739 5736 5733 5732 5731 5728 5724 5722 5723 5723 5722 5721 5720 5720 5718 5715 5714 5714 5713 5711 5709 5708 5706 5705 5704 5701 5699 5697 5696 5695 5692
5774 5763 5751 5747 5748 5752 5763 5754 5763 5778 5778 5774 5767 5762 5758 5754 5748 5743 5740 5737 5734 5732 5731 5729 5725 5723 5723 5723 5722 5721 5719 5718 5716 5716 5714 5714 5714 5712 5707 5707 5704 5703 5700 5698 5696 5694 5693 5691 5688
5772 5769 5749 5737 5744 5757 5757 5754 5773 5781 5781 5778 5775 5769 5762 5757 5753 5747 5744 5741 5738 5735 5732 5730 5726 5724 5724 5723 5722 5721 5719 5720 5720 5716 5717 5715 5714 5712 5707 5704 5702 5699 5697 5696 5693 5693 5690 5687 5684
5769 5770 5779 5762 5758 5751 5762 5767 5775 5778 5775 5773 5771 5768 5763 5760 5757 5752 5749 5746 5742 5739 5736 5733 5729 5726 5725 5724 5722 5720 5719 5719 5719 5715 5714 5714 5710 5709 5705 5702 5699 5697 5694 5692 5690 5690 5685 5683 5682
5781 5780 5766 5757 5738 5740 5755 5761 5768 5769 5770 5771 5770 5768 5767 5764 5760 5757 5753 5750 5747 5744 5740 5737 5733 5729 5727 5725 5724 5722 5720 5718 5716 5715 5713 5711 5708 5705 5702 5700 5697 5695 5692 5690 5687 5686 5683 5679 5677
5766 5766 5767 5766 5760 5745 5742 5761 5787 5782 5781 5776 5775 5774 5771 5768 5765 5761 5758 5755 5752 5748 5744 5739 5736 5732 5729 5727 5725 5723 5721 5719 5716 5713 5711 5708 5706 5702 5700 5697 5695 5692 5690 5687 5684 5684 5680 5677 5675
5776 5773 5768 5752 5750 5754 5753 5765 5794 5791 5789 5784 5781 5778 5776 5773 5770 5767 5763 5758 5754 5750 5747 5742 5739 5736 5733 5730 5726 5724 5721 5719 5716 5713 5710 5707 5704 5701 5698 5696 5693 5690 5688 5684 5682 5679 5677 5674 5672